URO7100 EGNT-LSGG

Flight info

Callsign URO7100
Flight time N/A
Altitude 37000
Route GIRLI P18 GASKO P16 RIBEL UP16 CROFT UL612 HON DCT XAMAB UL612 VEULE/N0487F310 DCT PEKIM DCT PILUL/N0454F270 DCT PIMUP DCT PIXIS DCT PIBAT/N0428F230 DCT LUSAR
Aircraft A346/H-SDE2E3FGHIJ3J4J5M1RWXY/LB1D1

Departure

Time 2026-05-07 19:32
Airport Newcastle International Airport (EGNT)

Arrival

Time N/A
Airport Geneva International Airport (LSGG)
Time Latitude Longitude Altitude Speed Heading
2026-05-07 19:04 55.03906 -1.70271 268 ft 0 kts 93°
2026-05-07 19:17 55.03906 -1.70275 268 ft 1 kts 94°
2026-05-07 19:17 55.03907 -1.70300 269 ft 2 kts 94°
2026-05-07 19:17 55.03910 -1.70325 269 ft 2 kts 114°
2026-05-07 19:17 55.03918 -1.70347 269 ft 2 kts 133°
2026-05-07 19:18 55.03930 -1.70363 269 ft 2 kts 151°
2026-05-07 19:18 55.03943 -1.70372 269 ft 2 kts 168°
2026-05-07 19:18 55.03955 -1.70375 269 ft 0 kts 183°
2026-05-07 19:18 55.03958 -1.70374 269 ft 0 kts 184°
2026-05-07 19:21 55.03956 -1.70375 269 ft 0 kts 184°
2026-05-07 19:21 55.03941 -1.70376 269 ft 3 kts 184°
2026-05-07 19:21 55.03912 -1.70380 270 ft 0 kts 183°
2026-05-07 19:22 55.03881 -1.70383 271 ft 11 kts 183°
2026-05-07 19:22 55.03805 -1.70375 272 ft 7 kts 147°
2026-05-07 19:22 55.03780 -1.70263 269 ft 14 kts 95°
2026-05-07 19:22 55.03777 -1.70010 265 ft 27 kts 87°
2026-05-07 19:23 55.03809 -1.69664 258 ft 29 kts 73°
2026-05-07 19:23 55.03885 -1.69324 253 ft 30 kts 65°
2026-05-07 19:23 55.03973 -1.68988 251 ft 28 kts 64°
2026-05-07 19:23 55.04060 -1.68664 248 ft 30 kts 65°
2026-05-07 19:24 55.04149 -1.68325 244 ft 29 kts 65°
2026-05-07 19:24 55.04220 -1.68067 241 ft 20 kts 64°
2026-05-07 19:24 55.04285 -1.67819 241 ft 26 kts 65°
2026-05-07 19:24 55.04335 -1.67597 243 ft 14 kts 83°
2026-05-07 19:25 55.04335 -1.67511 244 ft 0 kts 94°
2026-05-07 19:27 55.04335 -1.67510 244 ft 0 kts 94°
2026-05-07 19:27 55.04335 -1.67501 244 ft 0 kts 94°
2026-05-07 19:27 55.04332 -1.67458 244 ft 6 kts 101°
2026-05-07 19:28 55.04332 -1.67455 244 ft 0 kts 102°
2026-05-07 19:28 55.04330 -1.67444 244 ft 4 kts 108°
2026-05-07 19:29 55.04281 -1.67372 245 ft 12 kts 158°
2026-05-07 19:29 55.04234 -1.67370 244 ft 6 kts 210°
2026-05-07 19:29 55.04201 -1.67445 244 ft 6 kts 242°
2026-05-07 19:29 55.04200 -1.67449 244 ft 0 kts 242°
2026-05-07 19:31 55.04188 -1.67490 244 ft 20 kts 244°
2026-05-07 19:31 55.04004 -1.68178 242 ft 101 kts 243°
2026-05-07 19:31 55.03614 -1.69646 267 ft 162 kts 244°
2026-05-07 19:32 55.03138 -1.71427 899 ft 162 kts 242°
2026-05-07 19:32 55.02674 -1.73183 1577 ft 163 kts 242°
2026-05-07 19:32 55.02191 -1.74973 2249 ft 167 kts 236°
2026-05-07 19:32 55.01351 -1.76369 2746 ft 177 kts 204°
2026-05-07 19:33 55.00114 -1.76828 3273 ft 192 kts 185°
2026-05-07 19:33 54.98762 -1.77303 3750 ft 212 kts 200°
2026-05-07 19:33 54.97325 -1.78210 4311 ft 231 kts 199°
2026-05-07 19:33 54.95767 -1.79192 4955 ft 249 kts 200°
2026-05-07 19:34 54.94136 -1.80254 5859 ft 255 kts 201°
2026-05-07 19:34 54.92483 -1.81357 6863 ft 259 kts 201°
2026-05-07 19:34 54.90819 -1.82484 7828 ft 262 kts 201°
2026-05-07 19:34 54.89124 -1.83641 8792 ft 265 kts 202°
2026-05-07 19:35 54.87429 -1.84803 9703 ft 269 kts 202°
2026-05-07 19:35 54.85686 -1.86001 10573 ft 273 kts 202°
2026-05-07 19:35 54.83924 -1.87213 11444 ft 277 kts 202°
2026-05-07 19:35 54.82087 -1.88142 12261 ft 282 kts 185°
2026-05-07 19:36 54.80143 -1.87715 13049 ft 292 kts 163°
2026-05-07 19:36 54.78228 -1.86227 13536 ft 310 kts 156°
2026-05-07 19:36 54.76244 -1.84569 13905 ft 330 kts 156°
2026-05-07 19:36 54.74109 -1.82811 14174 ft 351 kts 157°
2026-05-07 19:37 54.71755 -1.81442 14583 ft 364 kts 170°
2026-05-07 19:37 54.69222 -1.81115 15054 ft 375 kts 184°
2026-05-07 19:37 54.66614 -1.81755 15801 ft 380 kts 191°
2026-05-07 19:37 54.64026 -1.82576 16608 ft 383 kts 191°
2026-05-07 19:38 54.61417 -1.83409 17325 ft 388 kts 191°
2026-05-07 19:38 54.58752 -1.84132 18027 ft 393 kts 185°
2026-05-07 19:38 54.56001 -1.84023 18686 ft 400 kts 178°
2026-05-07 19:38 54.53212 -1.83692 19393 ft 404 kts 177°
2026-05-07 19:39 54.50433 -1.83360 20061 ft 408 kts 177°
2026-05-07 19:39 54.47586 -1.83050 20703 ft 413 kts 178°
2026-05-07 19:39 54.44726 -1.82766 21335 ft 418 kts 178°
2026-05-07 19:39 54.41836 -1.82496 21954 ft 422 kts 178°
2026-05-07 19:40 54.38883 -1.82237 22569 ft 426 kts 178°
2026-05-07 19:40 54.35939 -1.81985 23166 ft 430 kts 178°
2026-05-07 19:40 54.32914 -1.81733 23753 ft 434 kts 178°
2026-05-07 19:40 54.29885 -1.81484 24330 ft 438 kts 178°
2026-05-07 19:41 54.26866 -1.81237 24906 ft 442 kts 178°
2026-05-07 19:41 54.23779 -1.80987 25492 ft 446 kts 178°
2026-05-07 19:41 54.20715 -1.80740 26083 ft 448 kts 178°
2026-05-07 19:41 54.17554 -1.80484 26611 ft 452 kts 178°
2026-05-07 19:42 54.14435 -1.80234 27141 ft 455 kts 178°
2026-05-07 19:42 54.11269 -1.79979 27675 ft 458 kts 178°
2026-05-07 19:42 54.08080 -1.79721 28176 ft 461 kts 177°
2026-05-07 19:42 54.04883 -1.79462 28719 ft 463 kts 177°
2026-05-07 19:43 54.01667 -1.79203 29464 ft 460 kts 177°
2026-05-07 19:43 53.98478 -1.78946 30214 ft 457 kts 177°
2026-05-07 19:43 53.95331 -1.78694 30924 ft 454 kts 177°
2026-05-07 19:43 53.92184 -1.78443 31580 ft 452 kts 177°
2026-05-07 19:44 53.89072 -1.78192 32199 ft 450 kts 177°
2026-05-07 19:44 53.85973 -1.77944 32797 ft 449 kts 177°
2026-05-07 19:44 53.82870 -1.77698 33362 ft 448 kts 177°
2026-05-07 19:44 53.79747 -1.77452 33933 ft 447 kts 177°
2026-05-07 19:45 53.76685 -1.77209 34482 ft 445 kts 177°
2026-05-07 19:45 53.73623 -1.76968 35011 ft 444 kts 177°
2026-05-07 19:45 53.70526 -1.76723 35331 ft 443 kts 178°
2026-05-07 19:45 53.67482 -1.76480 35569 ft 444 kts 178°
2026-05-07 19:46 53.64386 -1.76237 35781 ft 445 kts 178°
2026-05-07 19:46 53.61314 -1.75997 36000 ft 446 kts 178°
2026-05-07 19:46 53.58249 -1.75756 36208 ft 446 kts 178°
2026-05-07 19:46 53.55143 -1.75513 36455 ft 447 kts 178°
2026-05-07 19:47 53.52053 -1.75273 36751 ft 448 kts 178°
2026-05-07 19:47 53.48937 -1.75031 37331 ft 448 kts 178°
2026-05-07 19:47 53.45825 -1.74789 37579 ft 448 kts 178°
2026-05-07 19:47 53.42704 -1.74546 37820 ft 448 kts 178°
2026-05-07 19:48 53.39615 -1.74306 38024 ft 449 kts 178°
2026-05-07 19:48 53.36509 -1.74067 38208 ft 450 kts 178°
2026-05-07 19:48 53.33367 -1.73824 38332 ft 451 kts 178°
2026-05-07 19:48 53.30275 -1.73586 38585 ft 452 kts 178°
2026-05-07 19:49 53.27146 -1.73345 38777 ft 453 kts 178°
2026-05-07 19:49 53.23988 -1.73102 38994 ft 453 kts 178°
2026-05-07 19:49 53.20867 -1.72863 39215 ft 454 kts 178°
2026-05-07 19:49 53.17699 -1.72620 39409 ft 455 kts 178°
2026-05-07 19:50 53.14545 -1.72377 39579 ft 456 kts 178°
2026-05-07 19:50 53.11379 -1.72135 39746 ft 457 kts 178°
2026-05-07 19:50 53.08246 -1.71895 39902 ft 458 kts 178°
2026-05-07 19:50 53.05031 -1.71650 40056 ft 459 kts 178°
2026-05-07 19:51 53.01848 -1.71406 40202 ft 460 kts 178°
2026-05-07 19:51 52.98693 -1.71166 40336 ft 461 kts 178°
2026-05-07 19:51 52.95461 -1.70919 40469 ft 462 kts 178°
2026-05-07 19:51 52.92261 -1.70676 40596 ft 463 kts 178°
2026-05-07 19:52 52.89065 -1.70434 40719 ft 464 kts 178°
2026-05-07 19:52 52.85864 -1.70193 40842 ft 464 kts 178°
2026-05-07 19:52 52.82636 -1.69949 40959 ft 465 kts 178°
2026-05-07 19:52 52.79407 -1.69706 41032 ft 467 kts 178°
2026-05-07 19:53 52.72911 -1.69218 41036 ft 470 kts 178°
2026-05-07 19:53 52.66398 -1.68728 41041 ft 468 kts 178°
2026-05-07 19:54 52.59932 -1.68245 41044 ft 468 kts 178°
2026-05-07 19:54 52.53469 -1.67765 41044 ft 468 kts 178°
2026-05-07 19:55 52.46970 -1.67281 41045 ft 468 kts 178°
2026-05-07 19:55 52.40532 -1.66044 41045 ft 470 kts 170°
2026-05-07 19:56 52.34219 -1.63329 41046 ft 472 kts 162°
2026-05-07 19:56 52.28166 -1.59185 41045 ft 474 kts 154°
2026-05-07 19:57 52.22437 -1.53930 41044 ft 474 kts 151°
2026-05-07 19:57 52.16747 -1.48583 41043 ft 475 kts 151°
2026-05-07 19:58 52.11068 -1.43268 41043 ft 475 kts 151°
2026-05-07 19:58 52.05339 -1.37924 41042 ft 475 kts 151°
2026-05-07 19:59 51.99608 -1.32594 41043 ft 475 kts 152°
2026-05-07 19:59 51.93907 -1.27306 41046 ft 475 kts 152°
2026-05-07 20:00 51.88176 -1.22008 41049 ft 475 kts 152°
2026-05-07 20:00 51.82471 -1.16749 41049 ft 475 kts 152°
2026-05-07 20:01 51.76709 -1.11578 37122 ft 473 kts 154°
2026-05-07 20:01 51.73813 -1.09271 36374 ft 452 kts 160°
2026-05-07 20:01 51.71068 -1.07065 37094 ft 440 kts 153°
2026-05-07 20:02 51.73979 -1.12513 37293 ft 444 kts 153°
2026-05-07 20:02 51.70987 -1.08615 37207 ft 458 kts 144°